Weather History for Aurora, OR

Change the Weather History Date:

Thursday, October 11, 2012

  Actual Average Record
Temperature  
Mean Temperature 52 °F -  
Max Temperature 65 °F - 75 °F (2006)
Min Temperature 41 °F - 33 °F (2008)
Degree Days  
Heating Degree Days 12    
Month to date heating degree days 75  
Since 1 July heating degree days 192  
Cooling Degree Days 0    
Month to date cooling degree days 1  
Year to date cooling degree days 295  
Growing Degree Days 2 (Base 50)    
Moisture  
Dew Point 45 °F    
Average Humidity 78    
Maximum Humidity 100    
Minimum Humidity 56    
Precipitation  
Precipitation 0.00 in - 0.37 in (2003)
Month to date precipitation 0.00  
Year to date precipitation 29.97  
Sea Level Pressure  
Sea Level Pressure 29.93 in    
Wind  
Wind Speed 1 mph (NNE)    
Max Wind Speed 7 mph    
Max Gust Speed 9 mph    
Visibility 5 miles    
Events Fog    
T = Trace of Precipitation, MM = Missing Value Source: NWS Daily Summary

Daily Weather History Graph

Daily Weather History Graph

Search for Another Location

Airport:

Trip Planner

Search our weather history database for the weather conditions in past years. The results will help you decide how hot, cold, wet, or windy it might be!

Date:

Astronomy

Oct. 11, 2012 Rise Set
Actual Time 7:22 AM PDT 6:31 PM PDT
Civil Twilight 6:53 AM PDT 7:01 PM PDT
Nautical Twilight 6:18 AM PDT 7:35 PM PDT
Astronomical Twilight 5:44 AM PDT 8:09 PM PDT
Moon 2:56 AM PDT (10/11) 4:20 PM PDT (10/11)
Length of Visible Light 12h 08m
Length of Day
11h 09m
Waning Crescent, 17% of the Moon is Illuminated
Oct 11
Waning Crescent
Oct 15
New
Oct 21
First Quarter
Oct 29
Full
Nov 6
Last Quarter

Hourly Weather History & Observations

Time (PDT) Temp. Windchill Dew Point Humidity Pressure Visibility Wind Dir Wind Speed Gust Speed Precip Events Conditions
12:53 AM 48.0 °F - 46.0 °F 93% 29.96 in 10.0 mi Calm Calm - N/A   Clear
1:53 AM 48.0 °F - 46.0 °F 93% 29.96 in 10.0 mi NNE 3.5 mph - N/A   Clear
2:53 AM 46.9 °F - 45.0 °F 93% 29.96 in 10.0 mi Calm Calm - N/A   Clear
3:53 AM 45.0 °F - 44.1 °F 97% 29.96 in 9.0 mi Calm Calm - N/A   Clear
4:53 AM 44.1 °F - 43.0 °F 96% 29.96 in 7.0 mi Calm Calm - N/A   Clear
5:53 AM 42.1 °F - 42.1 °F 100% 29.96 in 4.0 mi Calm Calm - N/A   Clear
6:25 AM 42.8 °F - 41.0 °F 93% 29.96 in 7.0 mi Calm Calm - N/A   Scattered Clouds
6:32 AM 41.0 °F - 41.0 °F 100% 29.96 in 7.0 mi Calm Calm - N/A   Mostly Cloudy
6:53 AM 43.0 °F - 42.1 °F 97% 29.96 in 6.0 mi Calm Calm - N/A   Overcast
7:03 AM 44.6 °F 43.1 °F 42.8 °F 93% 29.96 in 1.8 mi NE 3.5 mph - N/A   Overcast
7:15 AM 44.6 °F - 44.6 °F 100% 29.96 in 0.8 mi Calm Calm - N/A   Mist
7:29 AM 44.6 °F 43.1 °F 44.6 °F 100% 29.97 in 1.2 mi North 3.5 mph - N/A   Overcast
7:38 AM 44.6 °F 43.1 °F 44.6 °F 100% 29.97 in 0.8 mi North 3.5 mph - N/A   Mist
7:53 AM 45.0 °F 43.5 °F 45.0 °F 100% 29.97 in 0.5 mi NNE 3.5 mph - N/A Fog Fog
8:15 AM 44.6 °F 42.2 °F 44.6 °F 100% 29.97 in 0.2 mi NE 4.6 mph - N/A Fog Fog
8:45 AM 46.4 °F 42.9 °F 46.4 °F 100% 29.97 in 0.5 mi NE 6.9 mph - N/A Fog Fog
8:53 AM 46.0 °F 43.1 °F 46.0 °F 100% 29.98 in 0.8 mi NE 5.8 mph - N/A   Mist
9:07 AM 46.4 °F 43.5 °F 46.4 °F 100% 29.98 in 1.5 mi North 5.8 mph - N/A   Overcast
9:16 AM 46.4 °F 44.3 °F 46.4 °F 100% 29.97 in 2.5 mi NE 4.6 mph - N/A   Overcast
9:25 AM 46.4 °F 42.9 °F 46.4 °F 100% 29.97 in 3.0 mi NNE 6.9 mph - N/A   Overcast
9:53 AM 46.9 °F - 46.9 °F 100% 29.98 in 3.0 mi NNW 3.5 mph - N/A   Overcast
10:53 AM 48.9 °F - 46.9 °F 93% 29.97 in 4.0 mi Calm Calm - N/A   Overcast
11:53 AM 50.0 °F - 46.0 °F 86% 29.96 in 4.0 mi Calm Calm - N/A   Overcast
12:26 PM 51.8 °F - 46.4 °F 82% 29.94 in 5.0 mi Calm Calm - N/A   Haze
12:53 PM 55.0 °F - 46.9 °F 74% 29.94 in 6.0 mi Variable 3.5 mph - N/A   Haze
1:53 PM 59.0 °F - 46.9 °F 64% 29.90 in 9.0 mi WSW 3.5 mph - N/A   Clear
3:53 PM 64.0 °F - 48.0 °F 56% 29.85 in 10.0 mi Variable 4.6 mph - N/A   Clear
4:53 PM 64.0 °F - 48.0 °F 56% 29.83 in 9.0 mi Calm Calm - N/A   Clear
5:53 PM 64.0 °F - 48.0 °F 56% 29.81 in 6.0 mi Calm Calm - N/A   Haze
6:53 PM 57.0 °F - 48.9 °F 74% 29.81 in 5.0 mi Calm Calm - N/A   Haze
7:53 PM 54.0 °F - 48.0 °F 80% 29.81 in 6.0 mi Calm Calm - N/A   Haze
8:53 PM 50.0 °F - 46.9 °F 89% 29.82 in 5.0 mi Calm Calm - N/A   Clear
9:53 PM 46.9 °F - 45.0 °F 93% 29.83 in 6.0 mi Calm Calm - N/A   Clear
10:53 PM 46.0 °F - 45.0 °F 96% 29.85 in 4.0 mi Calm Calm - N/A   Clear
11:53 PM 44.1 °F 42.5 °F 44.1 °F 100% 29.86 in 4.0 mi South 3.5 mph - N/A   Clear